Time,TemperatureF,DewpointF,PressureIn,WindDirection,WindDirectionDegrees,WindSpeedMPH,WindSpeedGustMPH,Humidity,HourlyPrecipIn,Conditions,Clouds,dailyrainin,SoftwareType,DateUTC
2013-05-22 00:01:00,66.9,55.9,30.18,SSE,158,0.0,0.0,68,0.00,,,0.00,WUHU216HW,2013-05-22 04:01:00,
2013-05-22 00:06:00,66.9,55.9,30.18,SSE,158,0.0,0.0,68,0.00,,,0.00,WUHU216HW,2013-05-22 04:06:00,
2013-05-22 00:11:00,66.7,55.8,30.18,SSE,158,0.0,0.0,69,0.00,,,0.00,WUHU216HW,2013-05-22 04:11:00,
2013-05-22 00:16:00,66.3,55.8,30.19,SSE,158,0.0,0.0,69,0.00,,,0.00,WUHU216HW,2013-05-22 04:16:00,
2013-05-22 00:21:00,66.2,55.7,30.19,SSE,158,0.0,0.0,69,0.00,,,0.00,WUHU216HW,2013-05-22 04:21:00,
2013-05-22 00:26:00,66.0,55.9,30.19,SSE,158,0.0,0.0,70,0.00,,,0.00,WUHU216HW,2013-05-22 04:26:00,
2013-05-22 00:31:00,65.8,55.7,30.19,SSE,158,0.0,0.0,70,0.00,,,0.00,WUHU216HW,2013-05-22 04:31:00,
2013-05-22 00:36:00,65.6,55.6,30.18,SSE,158,0.0,0.0,70,0.00,,,0.00,WUHU216HW,2013-05-22 04:36:00,
2013-05-22 00:41:00,65.4,55.4,30.18,SSE,158,0.0,0.0,70,0.00,,,0.00,WUHU216HW,2013-05-22 04:41:00,
2013-05-22 00:46:00,65.3,55.6,30.18,SSE,158,0.0,0.0,71,0.00,,,0.00,WUHU216HW,2013-05-22 04:46:00,
2013-05-22 00:51:00,65.1,55.5,30.17,SSE,158,0.0,0.0,71,0.00,,,0.00,WUHU216HW,2013-05-22 04:51:00,
2013-05-22 00:56:00,64.9,55.3,30.17,SSE,158,0.0,0.0,71,0.00,,,0.00,WUHU216HW,2013-05-22 04:56:00,
2013-05-22 01:01:00,64.7,55.3,30.17,SSE,158,0.0,0.0,71,0.00,,,0.00,WUHU216HW,2013-05-22 05:01:00,
2013-05-22 01:06:00,64.5,55.3,30.17,SSE,158,0.0,0.0,72,0.00,,,0.00,WUHU216HW,2013-05-22 05:06:00,
2013-05-22 01:11:00,64.4,55.5,30.17,SSE,158,0.0,0.0,73,0.00,,,0.00,WUHU216HW,2013-05-22 05:11:00,
2013-05-22 01:16:00,64.2,55.4,30.17,SSE,158,0.0,0.0,73,0.00,,,0.00,WUHU216HW,2013-05-22 05:16:00,
2013-05-22 01:21:00,64.2,55.4,30.17,SSE,158,0.0,0.0,73,0.00,,,0.00,WUHU216HW,2013-05-22 05:21:00,
2013-05-22 01:26:00,64.0,55.2,30.17,SSE,158,0.0,0.0,73,0.00,,,0.00,WUHU216HW,2013-05-22 05:26:00,
2013-05-22 01:31:00,64.0,55.2,30.17,SSE,158,0.0,0.0,73,0.00,,,0.00,WUHU216HW,2013-05-22 05:31:00,
2013-05-22 01:36:00,63.6,54.8,30.17,SSE,158,0.0,0.0,73,0.00,,,0.00,WUHU216HW,2013-05-22 05:36:00,
2013-05-22 01:41:00,63.6,55.2,30.17,SSE,158,0.0,0.0,74,0.00,,,0.00,WUHU216HW,2013-05-22 05:41:00,
2013-05-22 01:46:00,63.5,55.4,30.17,SSE,158,0.0,0.0,75,0.00,,,0.00,WUHU216HW,2013-05-22 05:46:00,
2013-05-22 01:51:00,63.3,55.2,30.17,SSE,158,0.0,0.0,75,0.00,,,0.00,WUHU216HW,2013-05-22 05:51:00,
2013-05-22 01:56:00,63.3,55.2,30.17,SSE,158,0.0,0.0,75,0.00,,,0.00,WUHU216HW,2013-05-22 05:56:00,
2013-05-22 02:01:00,63.1,55.4,30.16,SSE,158,0.0,0.0,76,0.00,,,0.00,WUHU216HW,2013-05-22 06:01:00,
2013-05-22 02:06:00,63.1,55.7,30.16,SSE,158,0.0,0.0,77,0.00,,,0.00,WUHU216HW,2013-05-22 06:06:00,
2013-05-22 02:11:00,63.1,56.1,30.17,SSE,158,0.0,0.0,78,0.00,,,0.00,WUHU216HW,2013-05-22 06:11:00,
2013-05-22 02:16:00,62.9,55.9,30.16,SSE,158,0.0,0.0,78,0.00,,,0.00,WUHU216HW,2013-05-22 06:16:00,
2013-05-22 02:21:00,62.9,55.9,30.16,SSE,158,0.0,0.0,78,0.00,,,0.00,WUHU216HW,2013-05-22 06:21:00,
2013-05-22 02:26:00,63.1,56.1,30.16,SSE,158,0.0,0.0,78,0.00,,,0.00,WUHU216HW,2013-05-22 06:26:00,
2013-05-22 02:31:00,63.1,56.1,30.16,SSE,158,0.0,0.0,78,0.00,,,0.00,WUHU216HW,2013-05-22 06:31:00,
2013-05-22 02:36:00,63.1,56.1,30.16,SSE,158,0.0,0.0,78,0.00,,,0.00,WUHU216HW,2013-05-22 06:36:00,
2013-05-22 02:41:00,63.1,56.1,30.16,SSE,158,0.0,0.0,78,0.00,,,0.00,WUHU216HW,2013-05-22 06:41:00,
2013-05-22 02:46:00,63.1,56.1,30.16,SSE,158,0.0,0.0,78,0.00,,,0.00,WUHU216HW,2013-05-22 06:46:00,
2013-05-22 02:51:00,63.1,56.1,30.15,SSE,158,0.0,0.0,78,0.00,,,0.00,WUHU216HW,2013-05-22 06:51:00,
2013-05-22 02:56:00,63.1,56.1,30.15,SSE,158,0.0,0.0,78,0.00,,,0.00,WUHU216HW,2013-05-22 06:56:00,
2013-05-22 03:01:00,63.1,56.4,30.14,SSE,158,0.0,0.0,79,0.00,,,0.00,WUHU216HW,2013-05-22 07:01:00,
2013-05-22 03:06:00,63.1,56.4,30.14,SSE,158,0.0,0.0,79,0.00,,,0.00,WUHU216HW,2013-05-22 07:06:00,
2013-05-22 03:11:00,63.1,56.4,30.14,SSE,158,0.0,0.0,79,0.00,,,0.00,WUHU216HW,2013-05-22 07:11:00,
2013-05-22 03:16:00,63.1,56.4,30.13,SSE,158,0.0,0.0,79,0.00,,,0.00,WUHU216HW,2013-05-22 07:16:00,
2013-05-22 03:21:00,62.9,56.6,30.13,SSE,158,0.0,0.0,80,0.00,,,0.00,WUHU216HW,2013-05-22 07:21:00,
2013-05-22 03:26:00,62.9,56.6,30.13,SSE,158,0.0,0.0,80,0.00,,,0.00,WUHU216HW,2013-05-22 07:26:00,
2013-05-22 03:31:00,62.7,56.4,30.13,SSE,158,0.0,0.0,80,0.00,,,0.00,WUHU216HW,2013-05-22 07:31:00,
2013-05-22 03:36:00,62.7,56.1,30.13,SSE,158,0.0,0.0,79,0.00,,,0.00,WUHU216HW,2013-05-22 07:36:00,
2013-05-22 03:41:00,62.6,55.9,30.13,SSE,158,0.0,0.0,79,0.00,,,0.00,WUHU216HW,2013-05-22 07:41:00,
2013-05-22 03:46:00,62.6,55.9,30.13,SSE,158,0.0,0.0,79,0.00,,,0.00,WUHU216HW,2013-05-22 07:46:00,
2013-05-22 03:51:00,62.4,55.7,30.13,SSE,158,0.0,0.0,79,0.00,,,0.00,WUHU216HW,2013-05-22 07:51:00,
2013-05-22 03:56:00,62.4,55.7,30.12,SSE,158,0.0,0.0,79,0.00,,,0.00,WUHU216HW,2013-05-22 07:56:00,
2013-05-22 04:01:00,62.2,55.9,30.12,SSE,158,0.0,0.0,80,0.00,,,0.00,WUHU216HW,2013-05-22 08:01:00,
2013-05-22 04:06:00,61.8,55.6,30.13,SSE,158,0.0,0.0,80,0.00,,,0.00,WUHU216HW,2013-05-22 08:06:00,
2013-05-22 04:11:00,61.7,55.8,30.12,SSE,158,0.0,0.0,81,0.00,,,0.00,WUHU216HW,2013-05-22 08:11:00,
2013-05-22 04:16:00,61.7,55.8,30.12,SSE,158,0.0,0.0,81,0.00,,,0.00,WUHU216HW,2013-05-22 08:16:00,
2013-05-22 04:21:00,61.5,55.6,30.13,SSE,158,0.0,0.0,81,0.00,,,0.00,WUHU216HW,2013-05-22 08:21:00,
2013-05-22 04:26:00,61.3,55.4,30.13,SSE,158,0.0,0.0,81,0.00,,,0.00,WUHU216HW,2013-05-22 08:26:00,
2013-05-22 04:31:00,61.1,55.3,30.13,SSE,158,0.0,0.0,81,0.00,,,0.00,WUHU216HW,2013-05-22 08:31:00,
2013-05-22 04:36:00,61.1,55.3,30.12,SSE,158,0.0,0.0,81,0.00,,,0.00,WUHU216HW,2013-05-22 08:36:00,
2013-05-22 04:41:00,60.9,55.1,30.13,SSE,158,0.0,0.0,81,0.00,,,0.00,WUHU216HW,2013-05-22 08:41:00,
2013-05-22 04:46:00,60.9,55.1,30.12,SSE,158,0.0,0.0,81,0.00,,,0.00,WUHU216HW,2013-05-22 08:46:00,
2013-05-22 04:51:00,60.8,55.0,30.12,SSE,158,0.0,0.0,81,0.00,,,0.00,WUHU216HW,2013-05-22 08:51:00,
2013-05-22 04:56:00,60.6,54.8,30.12,SSE,158,0.0,0.0,81,0.00,,,0.00,WUHU216HW,2013-05-22 08:56:00,
2013-05-22 05:01:00,60.6,54.8,30.13,SSE,158,0.0,0.0,81,0.00,,,0.00,WUHU216HW,2013-05-22 09:01:00,
2013-05-22 05:06:00,60.6,54.8,30.13,SSE,158,0.0,0.0,81,0.00,,,0.00,WUHU216HW,2013-05-22 09:06:00,
2013-05-22 05:11:00,60.4,54.6,30.12,SSE,158,0.0,0.0,81,0.00,,,0.00,WUHU216HW,2013-05-22 09:11:00,
2013-05-22 05:16:00,60.4,54.6,30.13,SSE,158,0.0,0.0,81,0.00,,,0.00,WUHU216HW,2013-05-22 09:16:00,
2013-05-22 05:21:00,60.2,54.7,30.13,SSE,158,0.0,0.0,82,0.00,,,0.00,WUHU216HW,2013-05-22 09:21:00,
2013-05-22 05:26:00,60.0,54.6,30.13,SSE,158,0.0,0.0,82,0.00,,,0.00,WUHU216HW,2013-05-22 09:26:00,
2013-05-22 05:31:00,59.9,54.7,30.13,SSE,158,0.0,0.0,83,0.00,,,0.00,WUHU216HW,2013-05-22 09:31:00,
2013-05-22 05:36:00,59.5,54.3,30.13,SSE,158,0.0,0.0,83,0.00,,,0.00,WUHU216HW,2013-05-22 09:36:00,
2013-05-22 05:41:00,59.5,54.3,30.13,SSE,158,0.0,0.0,83,0.00,,,0.00,WUHU216HW,2013-05-22 09:41:00,
2013-05-22 05:46:00,59.5,54.3,30.13,SSE,158,0.0,0.0,83,0.00,,,0.00,WUHU216HW,2013-05-22 09:46:00,
2013-05-22 05:51:00,59.5,54.3,30.13,SSE,158,0.0,0.0,83,0.00,,,0.00,WUHU216HW,2013-05-22 09:51:00,
2013-05-22 05:56:00,59.3,54.5,30.14,SSE,158,0.0,0.0,84,0.00,,,0.00,WUHU216HW,2013-05-22 09:56:00,
2013-05-22 06:01:00,59.0,54.0,30.14,SSE,158,0.0,0.0,83,0.00,,,0.00,WUHU216HW,2013-05-22 10:01:00,
2013-05-22 06:07:00,58.8,53.6,30.15,SSE,158,0.0,0.0,83,0.00,,,0.00,WUHU216HW,2013-05-22 10:07:00,
2013-05-22 06:12:00,58.8,53.6,30.16,SSE,158,0.0,0.0,83,0.00,,,0.00,WUHU216HW,2013-05-22 10:12:00,
2013-05-22 06:17:00,58.8,53.6,30.16,SSE,158,0.0,0.0,83,0.00,,,0.00,WUHU216HW,2013-05-22 10:17:00,
2013-05-22 06:22:00,58.8,53.6,30.16,SSE,158,0.0,0.0,83,0.00,,,0.00,WUHU216HW,2013-05-22 10:22:00,
2013-05-22 06:27:00,58.8,53.6,30.16,SSE,158,0.0,0.0,83,0.00,,,0.00,WUHU216HW,2013-05-22 10:27:00,
2013-05-22 06:32:00,58.8,53.6,30.16,SSE,158,0.0,0.0,83,0.00,,,0.00,WUHU216HW,2013-05-22 10:32:00,
2013-05-22 06:37:00,58.8,53.9,30.16,SSE,158,0.0,0.0,84,0.00,,,0.00,WUHU216HW,2013-05-22 10:37:00,
2013-05-22 06:42:00,58.8,53.9,30.16,SSE,158,0.0,0.0,84,0.00,,,0.00,WUHU216HW,2013-05-22 10:42:00,
2013-05-22 06:47:00,58.8,53.9,30.16,SSE,158,0.0,0.0,84,0.00,,,0.00,WUHU216HW,2013-05-22 10:47:00,
2013-05-22 06:52:00,58.8,53.9,30.15,SSE,158,0.0,0.0,84,0.00,,,0.00,WUHU216HW,2013-05-22 10:52:00,
2013-05-22 06:57:00,58.8,53.9,30.15,SSE,158,0.0,0.0,84,0.00,,,0.00,WUHU216HW,2013-05-22 10:57:00,
2013-05-22 07:02:00,58.8,53.9,30.15,SSE,158,0.0,0.0,84,0.00,,,0.00,WUHU216HW,2013-05-22 11:02:00,
2013-05-22 07:07:00,59.1,54.3,30.16,SSE,158,0.0,0.0,84,0.00,,,0.00,WUHU216HW,2013-05-22 11:07:00,
2013-05-22 07:12:00,59.1,54.6,30.16,SSE,158,0.0,0.0,85,0.00,,,0.00,WUHU216HW,2013-05-22 11:12:00,
2013-05-22 07:17:00,59.1,54.6,30.16,SSE,158,0.0,0.0,85,0.00,,,0.00,WUHU216HW,2013-05-22 11:17:00,
2013-05-22 07:22:00,59.3,54.8,30.17,SSE,158,0.0,0.0,85,0.00,,,0.00,WUHU216HW,2013-05-22 11:22:00,
2013-05-22 07:27:00,59.5,55.0,30.16,SSE,158,0.0,0.0,85,0.00,,,0.00,WUHU216HW,2013-05-22 11:27:00,
2013-05-22 07:32:00,59.7,55.3,30.17,SSE,158,0.0,0.0,86,0.00,,,0.00,WUHU216HW,2013-05-22 11:32:00,
2013-05-22 07:37:00,59.7,55.5,30.17,SSE,158,0.0,0.0,86,0.00,,,0.00,WUHU216HW,2013-05-22 11:37:00,
2013-05-22 07:42:00,59.9,55.7,30.17,SSE,158,0.0,0.0,86,0.00,,,0.00,WUHU216HW,2013-05-22 11:42:00,
2013-05-22 07:47:00,60.0,55.9,30.17,SSE,158,0.0,0.0,86,0.00,,,0.00,WUHU216HW,2013-05-22 11:47:00,
2013-05-22 07:52:00,60.2,56.0,30.17,SSE,158,0.0,0.0,86,0.00,,,0.00,WUHU216HW,2013-05-22 11:52:00,
2013-05-22 07:57:00,60.4,56.2,30.16,SSE,158,0.0,0.0,86,0.00,,,0.00,WUHU216HW,2013-05-22 11:57:00,
2013-05-22 08:02:00,60.6,56.4,30.17,SSE,158,0.0,0.0,86,0.00,,,0.00,WUHU216HW,2013-05-22 12:02:00,
2013-05-22 08:07:00,60.6,56.4,30.17,SSE,158,0.0,0.0,86,0.00,,,0.00,WUHU216HW,2013-05-22 12:07:00,
2013-05-22 08:12:00,61.1,56.9,30.17,SSE,158,0.0,0.0,86,0.00,,,0.00,WUHU216HW,2013-05-22 12:12:00,
2013-05-22 08:17:00,61.3,57.6,30.16,SSE,158,0.0,0.0,87,0.00,,,0.00,WUHU216HW,2013-05-22 12:17:00,
2013-05-22 08:22:00,61.7,57.8,30.16,SSE,158,0.0,0.0,87,0.00,,,0.00,WUHU216HW,2013-05-22 12:22:00,
2013-05-22 08:27:00,61.8,57.9,30.16,SSE,158,0.0,0.0,87,0.00,,,0.00,WUHU216HW,2013-05-22 12:27:00,
2013-05-22 08:32:00,62.4,58.5,30.16,SSE,158,0.0,0.0,87,0.00,,,0.00,WUHU216HW,2013-05-22 12:32:00,
2013-05-22 08:37:00,62.7,58.8,30.16,SSE,158,0.0,0.0,87,0.00,,,0.00,WUHU216HW,2013-05-22 12:37:00,
2013-05-22 08:42:00,62.9,59.0,30.16,SSE,158,0.0,0.0,87,0.00,,,0.00,WUHU216HW,2013-05-22 12:42:00,
2013-05-22 08:47:00,63.5,59.5,30.16,SSE,158,0.0,0.0,87,0.00,,,0.00,WUHU216HW,2013-05-22 12:47:00,
2013-05-22 08:52:00,63.6,59.7,30.16,SSE,158,0.0,0.0,87,0.00,,,0.00,WUHU216HW,2013-05-22 12:52:00,
2013-05-22 08:57:00,64.0,60.1,30.16,SSE,158,0.0,0.0,87,0.00,,,0.00,WUHU216HW,2013-05-22 12:57:00,
2013-05-22 09:02:00,64.5,60.3,30.16,SSE,158,0.0,0.0,87,0.00,,,0.00,WUHU216HW,2013-05-22 13:02:00,
2013-05-22 09:07:00,64.7,60.8,30.16,SSE,158,0.0,0.0,87,0.00,,,0.00,WUHU216HW,2013-05-22 13:07:00,
2013-05-22 09:12:00,64.9,60.9,30.16,SSE,158,0.0,0.0,87,0.00,,,0.00,WUHU216HW,2013-05-22 13:12:00,
2013-05-22 09:17:00,65.4,61.1,30.16,SSE,158,0.0,0.0,86,0.00,,,0.00,WUHU216HW,2013-05-22 13:17:00,
2013-05-22 09:22:00,65.8,61.5,30.16,SSE,158,0.0,0.0,86,0.00,,,0.00,WUHU216HW,2013-05-22 13:22:00,
2013-05-22 09:27:00,66.0,61.6,30.16,SSE,158,0.0,0.0,86,0.00,,,0.00,WUHU216HW,2013-05-22 13:27:00,
2013-05-22 09:32:00,66.5,62.2,30.16,SSE,158,0.0,0.0,86,0.00,,,0.00,WUHU216HW,2013-05-22 13:32:00,
2013-05-22 09:37:00,66.7,62.3,30.16,SSW,203,0.0,0.0,86,0.00,,,0.00,WUHU216HW,2013-05-22 13:37:00,
2013-05-22 09:42:00,67.1,62.7,30.16,North,0,0.0,0.0,86,0.00,,,0.00,WUHU216HW,2013-05-22 13:42:00,
2013-05-22 09:47:00,67.8,63.1,30.16,North,0,0.0,0.0,85,0.00,,,0.00,WUHU216HW,2013-05-22 13:47:00,
2013-05-22 09:52:00,67.8,63.1,30.16,North,0,0.0,0.0,85,0.00,,,0.00,WUHU216HW,2013-05-22 13:52:00,
2013-05-22 09:57:00,68.3,63.6,30.16,North,0,0.0,0.0,85,0.00,,,0.00,WUHU216HW,2013-05-22 13:57:00,
2013-05-22 10:02:00,68.7,63.6,30.16,NNE,23,0.0,0.0,84,0.00,,,0.00,WUHU216HW,2013-05-22 14:02:00,
2013-05-22 10:07:00,69.0,63.6,30.16,NNE,23,0.0,0.0,83,0.00,,,0.00,WUHU216HW,2013-05-22 14:07:00,
2013-05-22 10:12:00,69.4,63.6,30.16,NNE,23,0.0,0.0,82,0.00,,,0.00,WUHU216HW,2013-05-22 14:12:00,
2013-05-22 10:17:00,69.6,63.8,30.16,WNW,293,0.0,0.0,82,0.00,,,0.00,WUHU216HW,2013-05-22 14:17:00,
2013-05-22 10:22:00,69.9,64.1,30.16,WNW,293,0.0,0.0,82,0.00,,,0.00,WUHU216HW,2013-05-22 14:22:00,
2013-05-22 10:27:00,70.3,64.5,30.16,WNW,293,0.0,0.0,82,0.00,,,0.00,WUHU216HW,2013-05-22 14:27:00,
2013-05-22 10:32:00,70.7,64.5,30.16,SSE,158,0.0,0.0,81,0.00,,,0.00,WUHU216HW,2013-05-22 14:32:00,
2013-05-22 10:37:00,71.0,64.9,30.16,SSE,158,0.0,0.0,81,0.00,,,0.00,WUHU216HW,2013-05-22 14:37:00,
2013-05-22 10:42:00,71.4,65.2,30.16,SSE,158,0.0,0.0,81,0.00,,,0.00,WUHU216HW,2013-05-22 14:42:00,
2013-05-22 10:47:00,72.1,65.2,30.16,SSE,158,0.0,0.0,79,0.00,,,0.00,WUHU216HW,2013-05-22 14:47:00,
2013-05-22 10:52:00,72.3,65.0,30.16,SSE,158,0.0,0.0,78,0.00,,,0.00,WUHU216HW,2013-05-22 14:52:00,
2013-05-22 10:57:00,72.5,64.8,30.16,SSE,158,0.0,0.0,77,0.00,,,0.00,WUHU216HW,2013-05-22 14:57:00,
2013-05-22 11:02:00,73.0,65.8,30.16,SSE,158,0.0,0.0,78,0.00,,,0.00,WUHU216HW,2013-05-22 15:02:00,
2013-05-22 11:07:00,73.2,65.6,30.15,SSE,158,0.0,0.0,77,0.00,,,0.00,WUHU216HW,2013-05-22 15:07:00,
2013-05-22 11:12:00,73.5,66.3,30.15,SSE,158,0.0,0.0,78,0.00,,,0.00,WUHU216HW,2013-05-22 15:12:00,
2013-05-22 11:17:00,74.1,66.8,30.15,SE,135,0.0,0.0,78,0.00,,,0.00,WUHU216HW,2013-05-22 15:17:00,
2013-05-22 11:22:00,74.8,67.5,30.15,SE,135,0.0,0.0,78,0.00,,,0.00,WUHU216HW,2013-05-22 15:22:00,
2013-05-22 11:27:00,75.3,67.6,30.15,SE,135,0.0,0.0,77,0.00,,,0.00,WUHU216HW,2013-05-22 15:27:00,
2013-05-22 11:32:00,76.2,68.1,30.15,SE,135,0.0,0.0,76,0.00,,,0.00,WUHU216HW,2013-05-22 15:32:00,
2013-05-22 11:37:00,76.8,67.8,30.15,SE,135,0.0,0.0,74,0.00,,,0.00,WUHU216HW,2013-05-22 15:37:00,
2013-05-22 11:42:00,77.5,68.5,30.14,West,270,0.0,0.0,74,0.00,,,0.00,WUHU216HW,2013-05-22 15:42:00,
2013-05-22 11:47:00,77.9,68.1,30.15,SW,225,0.0,0.0,71,0.00,,,0.00,WUHU216HW,2013-05-22 15:47:00,
2013-05-22 11:52:00,78.9,68.7,30.15,SE,135,0.0,0.0,71,0.00,,,0.00,WUHU216HW,2013-05-22 15:52:00,
2013-05-22 11:57:00,79.5,68.4,30.15,SE,135,0.0,0.0,69,0.00,,,0.00,WUHU216HW,2013-05-22 15:57:00,
2013-05-22 12:02:00,79.8,67.9,30.14,SE,135,0.0,0.0,67,0.00,,,0.00,WUHU216HW,2013-05-22 16:02:00,
2013-05-22 12:07:00,80.2,68.2,30.14,SE,135,0.0,0.0,67,0.00,,,0.00,WUHU216HW,2013-05-22 16:07:00,
2013-05-22 12:12:00,80.4,68.4,30.14,SE,135,0.0,0.0,67,0.00,,,0.00,WUHU216HW,2013-05-22 16:12:00,
2013-05-22 12:17:00,80.4,67.5,30.15,SE,135,0.0,0.0,65,0.00,,,0.00,WUHU216HW,2013-05-22 16:17:00,
2013-05-22 12:22:00,80.2,67.3,30.14,SE,135,0.0,0.0,65,0.00,,,0.00,WUHU216HW,2013-05-22 16:22:00,
2013-05-22 12:27:00,79.7,66.8,30.15,SE,135,0.0,0.0,65,0.00,,,0.00,WUHU216HW,2013-05-22 16:27:00,
2013-05-22 12:32:00,79.3,66.5,30.15,SE,135,0.0,0.0,65,0.00,,,0.00,WUHU216HW,2013-05-22 16:32:00,
2013-05-22 12:38:00,78.8,66.0,30.15,SE,135,0.0,0.0,65,0.00,,,0.00,WUHU216HW,2013-05-22 16:38:00,
2013-05-22 12:43:00,77.9,64.2,30.15,SSE,158,0.0,0.0,63,0.00,,,0.00,WUHU216HW,2013-05-22 16:43:00,
2013-05-22 12:48:00,77.1,63.5,30.15,SE,135,0.0,0.0,63,0.00,,,0.00,WUHU216HW,2013-05-22 16:48:00,
2013-05-22 12:53:00,76.2,62.7,30.14,SE,135,0.0,0.0,63,0.00,,,0.00,WUHU216HW,2013-05-22 16:53:00,
2013-05-22 12:58:00,75.0,61.9,30.14,SE,135,0.0,0.0,64,0.00,,,0.00,WUHU216HW,2013-05-22 16:58:00,
2013-05-22 13:03:00,74.4,61.9,30.13,SE,135,0.0,0.0,65,0.00,,,0.00,WUHU216HW,2013-05-22 17:03:00,
2013-05-22 13:08:00,73.9,61.3,30.13,SE,135,0.0,0.0,65,0.00,,,0.00,WUHU216HW,2013-05-22 17:08:00,
2013-05-22 13:13:00,73.2,61.6,30.13,SE,135,0.0,0.0,67,0.00,,,0.00,WUHU216HW,2013-05-22 17:13:00,
2013-05-22 13:18:00,73.0,61.4,30.13,SE,135,0.0,0.0,67,0.00,,,0.00,WUHU216HW,2013-05-22 17:18:00,
2013-05-22 13:23:00,72.6,61.5,30.13,WSW,248,0.0,0.0,68,0.00,,,0.00,WUHU216HW,2013-05-22 17:23:00,
2013-05-22 13:28:00,73.2,63.3,30.12,SW,225,0.0,0.0,71,0.00,,,0.00,WUHU216HW,2013-05-22 17:28:00,
2013-05-22 13:33:00,73.9,64.3,30.12,SE,135,0.0,0.0,72,0.00,,,0.00,WUHU216HW,2013-05-22 17:33:00,
2013-05-22 13:38:00,74.8,63.2,30.12,WSW,248,0.0,0.0,68,0.00,,,0.00,WUHU216HW,2013-05-22 17:38:00,
2013-05-22 13:43:00,75.5,63.8,30.12,WSW,248,0.0,0.0,67,0.00,,,0.00,WUHU216HW,2013-05-22 17:43:00,
2013-05-22 13:48:00,76.2,64.9,30.12,WSW,248,0.0,0.0,68,0.00,,,0.00,WUHU216HW,2013-05-22 17:48:00,
2013-05-22 13:53:00,77.5,65.2,30.11,WSW,248,0.0,0.0,67,0.00,,,0.00,WUHU216HW,2013-05-22 17:53:00,
2013-05-22 13:58:00,78.4,66.1,30.11,WSW,248,0.0,0.0,66,0.00,,,0.00,WUHU216HW,2013-05-22 17:58:00,
2013-05-22 14:03:00,79.1,65.9,30.11,WSW,248,0.0,0.0,64,0.00,,,0.00,WUHU216HW,2013-05-22 18:03:00,
2013-05-22 14:08:00,80.2,65.1,30.11,WSW,248,0.0,0.0,60,0.00,,,0.00,WUHU216HW,2013-05-22 18:08:00,
2013-05-22 14:13:00,80.7,65.6,30.11,WSW,248,0.0,0.0,60,0.00,,,0.00,WUHU216HW,2013-05-22 18:13:00,
2013-05-22 14:18:00,81.5,65.7,30.11,WSW,248,0.0,0.0,59,0.00,,,0.00,WUHU216HW,2013-05-22 18:18:00,
2013-05-22 14:23:00,82.0,65.7,30.11,WSW,248,0.0,0.0,58,0.00,,,0.00,WUHU216HW,2013-05-22 18:23:00,
2013-05-22 14:28:00,82.9,67.1,30.11,WSW,248,0.0,0.0,59,0.00,,,0.00,WUHU216HW,2013-05-22 18:28:00,
2013-05-22 14:33:00,83.6,67.3,30.11,SE,135,0.0,0.0,58,0.00,,,0.00,WUHU216HW,2013-05-22 18:33:00,
2013-05-22 14:38:00,83.8,66.9,30.11,ESE,113,0.0,0.0,57,0.00,,,0.00,WUHU216HW,2013-05-22 18:38:00,
2013-05-22 14:43:00,83.3,64.8,30.11,SSE,158,0.0,0.0,54,0.00,,,0.00,WUHU216HW,2013-05-22 18:43:00,
2013-05-22 14:48:00,82.7,64.8,30.11,SE,135,0.0,0.0,55,0.00,,,0.00,WUHU216HW,2013-05-22 18:48:00,
2013-05-22 14:53:00,82.0,64.1,30.11,ESE,113,0.0,0.0,55,0.00,,,0.00,WUHU216HW,2013-05-22 18:53:00,
2013-05-22 14:58:00,80.7,63.5,30.11,ESE,113,0.0,0.0,56,0.00,,,0.00,WUHU216HW,2013-05-22 18:58:00,